Carolina, PR

8:51 PM AST on February 23, 2017 (GMT -0400)
Luis Munoz Marin International

Weather History for TJSJ - July, 2013

Change the Weather History Date:

Tuesday, July 9, 2013

  Actual Average Record
Temperature  
Mean Temperature 82 °F 83 °F  
Max Temperature 88 °F 89 °F 93 °F (1995)
Min Temperature 76 °F 78 °F 70 °F (1928)
Degree Days  
Heating Degree Days 0 0  
Month to date heating degree days 0 0  
Since 1 June heating degree days 0 0  
Since 1 July heating degree days 0 0  
Cooling Degree Days 17 18  
Month to date cooling degree days 159 162  
Year to date cooling degree days 2923 2876  
Since 1 June cooling degree days 675 711  
Growing Degree Days 33 (Base 50)    
Moisture  
Dew Point 76 °F    
Average Humidity 78    
Maximum Humidity 91    
Minimum Humidity 65    
Precipitation  
Precipitation 0.21 in 0.17 in 1.40 in (1928)
Month to date precipitation 1.93 1.41  
Year to date precipitation 37.75 24.50  
Sea Level Pressure  
Sea Level Pressure 30.06 in    
Wind  
Wind Speed 14 mph (East)    
Max Wind Speed 25 mph    
Max Gust Speed 33 mph    
Visibility 9 miles    
Events Rain    
T = Trace of Precipitation, MM = Missing Value Source: NWS Daily Summary

Daily Weather History Graph

Daily Weather History Graph

Search for Another Location

Airport or City:

Trip Planner

Search our weather history database for the weather conditions in past years. The results will help you decide how hot, cold, wet, or windy it might be!

Date:

Astronomy

Jul. 09, 2013 Rise Set
Actual Time 5:53 AM AST 7:04 PM AST
Civil Twilight 5:29 AM AST 7:28 PM AST
Nautical Twilight 5:01 AM AST 7:56 PM AST
Astronomical Twilight 4:32 AM AST 8:26 PM AST
Moon 6:57 AM AST (7/9) 8:00 PM AST (7/9)
Length of Visible Light 13h 58m
Length of Day
13h 10m
New Moon, 2% of the Moon is Illuminated
Jul 9
New Moon
Jul 15
First Quarter
Jul 22
Full
Jul 29
Last Quarter
Aug 6
New

Hourly Weather History & Observations

Time (AST) Temp. Heat Index Dew Point Humidity Pressure Visibility Wind Dir Wind Speed Gust Speed Precip Events Conditions
12:56 AM 82.0 °F 87.9 °F 73.9 °F 76% 30.08 in 10.0 mi ENE 17.3 mph - N/A   Mostly Cloudy
1:56 AM 81.0 °F 86.7 °F 75.0 °F 82% 30.06 in 10.0 mi ENE 16.1 mph - 0.00 in   Mostly Cloudy
2:56 AM 79.0 °F - 75.0 °F 88% 30.06 in 10.0 mi East 8.1 mph - 0.00 in   Mostly Cloudy
3:56 AM 79.0 °F - 75.0 °F 88% 30.05 in 10.0 mi East 4.6 mph - N/A   Mostly Cloudy
4:56 AM 79.0 °F - 75.0 °F 88% 30.06 in 10.0 mi East 5.8 mph - 0.00 in   Mostly Cloudy
5:56 AM 79.0 °F - 75.0 °F 88% 30.06 in 8.0 mi East 3.5 mph - 0.00 in Rain Light Rain
6:56 AM 80.1 °F 85.4 °F 75.9 °F 87% 30.07 in 10.0 mi East 9.2 mph - N/A   Mostly Cloudy
7:56 AM 80.1 °F 85.4 °F 75.9 °F 87% 30.10 in 9.0 mi East 12.7 mph 23.0 mph 0.02 in Rain Light Rain
8:56 AM 81.0 °F 87.9 °F 77.0 °F 88% 30.10 in 9.0 mi East 13.8 mph - 0.03 in Rain Light Rain
9:56 AM 84.0 °F 93.7 °F 77.0 °F 79% 30.10 in 10.0 mi ENE 17.3 mph - 0.00 in   Scattered Clouds
10:56 AM 84.0 °F 92.6 °F 75.9 °F 76% 30.10 in 10.0 mi ENE 19.6 mph 27.6 mph N/A   Scattered Clouds
11:56 AM 86.0 °F 96.0 °F 75.9 °F 72% 30.09 in 10.0 mi East 15.0 mph 26.5 mph N/A   Scattered Clouds
12:56 PM 84.9 °F 94.1 °F 75.9 °F 74% 30.08 in 9.0 mi East 18.4 mph 26.5 mph 0.00 in   Scattered Clouds
1:56 PM 86.0 °F 93.8 °F 73.9 °F 67% 30.06 in 8.0 mi ENE 17.3 mph 26.5 mph N/A   Mostly Cloudy
2:56 PM 87.1 °F 97.3 °F 75.9 °F 69% 30.04 in 8.0 mi ENE 16.1 mph - N/A   Scattered Clouds
3:56 PM 86.0 °F 96.9 °F 77.0 °F 74% 30.04 in 8.0 mi East 19.6 mph 28.8 mph 0.00 in Rain Light Rain
4:56 PM 84.0 °F 92.6 °F 75.9 °F 76% 30.04 in 8.0 mi ENE 19.6 mph 28.8 mph 0.01 in   Mostly Cloudy
5:56 PM 82.9 °F 90.8 °F 75.9 °F 79% 30.04 in 8.0 mi ENE 18.4 mph - N/A   Scattered Clouds
6:56 PM 82.9 °F 90.8 °F 75.9 °F 79% 30.04 in 9.0 mi ENE 18.4 mph - N/A   Scattered Clouds
7:56 PM 82.9 °F 91.8 °F 77.0 °F 82% 30.04 in 10.0 mi ENE 16.1 mph 20.7 mph N/A   Mostly Cloudy
8:56 PM 82.9 °F 90.8 °F 75.9 °F 79% 30.05 in 10.0 mi ENE 16.1 mph 26.5 mph N/A   Scattered Clouds
9:56 PM 81.0 °F 87.9 °F 77.0 °F 88% 30.05 in 10.0 mi East 24.2 mph 33.4 mph 0.01 in Rain Light Rain
10:56 PM 82.0 °F 91.0 °F 78.1 °F 88% 30.07 in 10.0 mi SSE 12.7 mph 25.3 mph 0.03 in   Mostly Cloudy
11:56 PM 77.0 °F - 72.0 °F 84% 30.06 in 10.0 mi Calm Calm - 0.11 in   Mostly Cloudy